Regional Weather Roundup
Issued by NWS

Home | Current Version | Previous Version | Graphics & Text | Print | Product List | Glossary Off
Versions: 1 2 3 4 5 6 7 8 9 10 11 12 13 14 15 16 17 18 19 20 21 22 23 24 25 26 27 28 29 30 31 32 33 34 35 36 37 38 39 40 41 42 43 44 45 46 47 48 49 50

000
ASUS43 KTOP 221159
RWRKS

WEATHER ROUNDUP FOR KANSAS
NATIONAL WEATHER SERVICE GOODLAND KS
700 AM CDT FRI AUG 22 2014

NOTE:  "FAIR" INDICATES FEW OR NO CLOUDS BELOW 12,000 FEET WITH NO
SIGNIFICANT WEATHER AND/OR OBSTRUCTIONS TO VISIBILITY.

KSZ001>006-013>018-027>032-041>047-221300-
NORTHWEST KANSAS

CITY           SKY/WX    TMP DP  RH WIND       PRES   REMARKS
GOODLAND       MOCLDY    67  61  81 NW13      30.05R
6HR MIN TEMP:  61; 6HR MAX TEMP:  68;

HAYS           MOCLDY    75  63  64 SW7       29.90R
HILL CITY      CLEAR     69  66  90 CALM      29.93R
6HR MIN TEMP:  68; 6HR MAX TEMP:  77;

RUSSELL        MOCLDY    78  67  68 S9        29.87S
6HR MIN TEMP:  77; 6HR MAX TEMP:  82;

$$

KSZ061>065-074>080-084>089-221300-
SOUTHWEST KANSAS

CITY           SKY/WX    TMP DP  RH WIND       PRES   REMARKS
DODGE CITY     PTCLDY    75  63  66 S12       29.94R
6HR MIN TEMP:  75; 6HR MAX TEMP:  82; 6HR PCP: TRACE;

ELKHART          N/A     69  56  63 SW5         N/A
GARDEN CITY    PTCLDY    69  63  81 S6        29.94R
6HR MIN TEMP:  69; 6HR MAX TEMP:  78;

GREAT BEND     MOCLDY    79  64  61 S8        29.89S
LIBERAL        CLEAR     73  61  64 S12       29.97R
$$

KSZ066>073-081>083-090>101-221300-
SOUTHEAST KANSAS

CITY           SKY/WX    TMP DP  RH WIND       PRES   REMARKS
CHANUTE        CLEAR     76  69  79 S13       29.95S
6HR MIN TEMP:  76; 6HR MAX TEMP:  81;

COFFEYVILLE    CLEAR     78  70  76 S14       29.95S
6HR MIN TEMP:  78; 6HR MAX TEMP:  83;

HUTCHINSON     PTCLDY    77  67  71 S8        29.91R
6HR MIN TEMP:  77; 6HR MAX TEMP:  84;

NEWTON         CLEAR     77  63  61 S14       29.95S
PARSONS        CLEAR     76  69  79 S6        29.97R
6HR MIN TEMP:  76; 6HR MAX TEMP:  81;

WICHITA INTL   PTCLDY    77  66  68 S10       29.91S
6HR MIN TEMP:  77; 6HR MAX TEMP:  83;

WICHITA JABRA  CLEAR     77  66  68 S12       29.92S
6HR MIN TEMP:  76; 6HR MAX TEMP:  83;

WINFIELD       CLEAR     78  66  66 S13       29.95R
6HR MIN TEMP:  77; 6HR MAX TEMP:  81;

$$

KSZ007>012-019>026-033>040-048>060-102>105-221300-
NORTHEAST KANSAS

CITY           SKY/WX    TMP DP  RH WIND       PRES   REMARKS
CONCORDIA      CLEAR     76  72  87 NE6       29.88R
6HR MIN TEMP:  75; 6HR MAX TEMP:  81;

EMPORIA        CLEAR     75  69  81 S16       29.91F
6HR MIN TEMP:  75; 6HR MAX TEMP:  80;

LAWRENCE       PTCLDY    80  71  74 SE6       29.91R
6HR MIN TEMP:  78; 6HR MAX TEMP:  86;

MANHATTAN      PTCLDY    80  69  69 SW13      29.87R
6HR MIN TEMP:  78; 6HR MAX TEMP:  82;

OLATHE IND     CLEAR     76  71  85 S10       29.93R
6HR MIN TEMP:  76; 6HR MAX TEMP:  81;

OLATHE EXE     CLEAR     76  70  82 S10       29.92R
6HR MIN TEMP:  75; 6HR MAX TEMP:  80;

SALINA         PTCLDY    78  70  76 S9        29.86S
6HR MIN TEMP:  78; 6HR MAX TEMP:  84;

TOPEKA BILLARD MOCLDY    81  72  74 S8        29.89S
6HR MIN TEMP:  80; 6HR MAX TEMP:  85;

TOPEKA FORBES  MOCLDY    78  70  76 S10       29.89S
6HR MIN TEMP:  78; 6HR MAX TEMP:  83;

$$


USA.gov is the U.S. government's official web portal to all federal, state and local government web resources and services.